Ketchikan, AK

12:56 PM AKDT on March 25, 2017 (GMT -0800)
Ketchikan International

Weather History for PAKT - September, 2013

Change the Weather History Date:

Thursday, September 26, 2013

  Actual Average Record
Temperature  
Mean Temperature 50 °F -  
Max Temperature 52 °F 57 °F 67 °F (1954)
Min Temperature 48 °F 44 °F 29 °F (1972)
Degree Days  
Heating Degree Days 16    
Moisture  
Dew Point 50 °F    
Average Humidity 100    
Maximum Humidity 100    
Minimum Humidity 96    
Precipitation  
Precipitation 0.80 in - - ()
Sea Level Pressure  
Sea Level Pressure 29.95 in    
Wind  
Wind Speed 9 mph (SSE)    
Max Wind Speed 21 mph    
Max Gust Speed 28 mph    
Visibility 8 miles    
Events Rain    
Averages and records for this station are not official NWS values.
T = Trace of Precipitation, MM = Missing Value Source: NWS Daily Summary

Daily Weather History Graph

Daily Weather History Graph

Search for Another Location

Airport or City:

Trip Planner

Search our weather history database for the weather conditions in past years. The results will help you decide how hot, cold, wet, or windy it might be!

Date:

Astronomy

Sep. 26, 2013 Rise Set
Actual Time 6:40 AM AKDT 6:34 PM AKDT
Civil Twilight 6:04 AM AKDT 7:10 PM AKDT
Nautical Twilight 5:21 AM AKDT 7:53 PM AKDT
Astronomical Twilight 4:36 AM AKDT 8:38 PM AKDT
Moon 10:47 PM AKDT (9/26) 2:30 PM AKDT (9/26)
Length of Visible Light 13h 06m
Length of Day
11h 53m
Waning Gibbous, 53% of the Moon is Illuminated
Sep 26
Waning Gibbous
Sep 26
Last Quarter
Oct 4
New
Oct 11
First Quarter
Oct 18
Full

Hourly Weather History & Observations

Time (AKDT) Temp. Dew Point Humidity Pressure Visibility Wind Dir Wind Speed Gust Speed Precip Events Conditions
12:53 AM 48.9 °F 48.9 °F 100% 30.11 in 10.0 mi SSE 5.8 mph - N/A   Overcast
1:53 AM 50.0 °F 50.0 °F 100% 30.10 in 10.0 mi SE 8.1 mph - N/A   Overcast
2:16 AM 50.0 °F 50.0 °F 100% 30.09 in 10.0 mi South 5.8 mph - N/A   Overcast
2:53 AM 50.0 °F 50.0 °F 100% 30.09 in 10.0 mi South 6.9 mph - N/A   Overcast
3:53 AM 51.1 °F 50.0 °F 96% 30.07 in 10.0 mi SSE 12.7 mph - N/A   Overcast
4:10 AM 50.0 °F 50.0 °F 100% 30.05 in 10.0 mi SE 11.5 mph - N/A   Overcast
4:53 AM 51.1 °F 50.0 °F 96% 30.05 in 10.0 mi SE 13.8 mph - 0.00 in Rain Light Rain
5:53 AM 50.0 °F 50.0 °F 100% 30.04 in 10.0 mi SSE 6.9 mph - 0.01 in Rain Light Rain
6:53 AM 50.0 °F 50.0 °F 100% 30.03 in 10.0 mi SSE 8.1 mph - 0.04 in Rain Light Rain
7:53 AM 50.0 °F 50.0 °F 100% 30.01 in 6.0 mi SSE 11.5 mph - 0.13 in Rain Light Rain
8:53 AM 50.0 °F 50.0 °F 100% 29.98 in 3.0 mi SSE 17.3 mph - 0.07 in Rain Light Rain
9:53 AM 50.0 °F 50.0 °F 100% 29.97 in 8.0 mi SSE 18.4 mph 24.2 mph 0.03 in Rain Light Rain
10:53 AM 50.0 °F 50.0 °F 100% 29.95 in 10.0 mi SE 15.0 mph - 0.01 in   Overcast
11:53 AM 48.9 °F 48.9 °F 100% 29.94 in 4.0 mi SSE 15.0 mph 21.9 mph 0.11 in Rain Rain
12:53 PM 50.0 °F 50.0 °F 100% 29.92 in 4.0 mi SE 19.6 mph - 0.14 in Rain Rain
1:53 PM 48.9 °F 48.9 °F 100% 29.91 in 4.0 mi SE 18.4 mph 26.5 mph 0.12 in Rain Light Rain
2:53 PM 50.0 °F 50.0 °F 100% 29.89 in 3.0 mi SE 20.7 mph 27.6 mph 0.05 in Rain Light Rain
3:53 PM 50.0 °F 50.0 °F 100% 29.88 in 3.0 mi SE 13.8 mph - 0.04 in Rain Light Rain
4:53 PM 50.0 °F 50.0 °F 100% 29.86 in 3.0 mi South 5.8 mph - 0.01 in   Overcast
5:53 PM 51.1 °F 51.1 °F 100% 29.86 in 10.0 mi Calm Calm - 0.01 in   Overcast
5:57 PM 51.8 °F 51.8 °F 100% 29.85 in 10.0 mi SSE 3.5 mph - N/A   Overcast
6:53 PM 51.1 °F 51.1 °F 100% 29.86 in 10.0 mi East 3.5 mph - 0.03 in   Overcast
7:53 PM 48.9 °F 48.9 °F 100% 29.87 in 10.0 mi South 4.6 mph - N/A   Mostly Cloudy
8:53 PM 48.0 °F 48.0 °F 100% 29.86 in 10.0 mi South 5.8 mph - N/A   Overcast
9:53 PM 48.9 °F 48.9 °F 100% 29.85 in 10.0 mi SSE 8.1 mph - N/A   Overcast
10:53 PM 48.9 °F 48.9 °F 100% 29.84 in 10.0 mi SSE 6.9 mph - 0.00 in   Mostly Cloudy
11:53 PM 48.9 °F 48.9 °F 100% 29.83 in 10.0 mi South 6.9 mph - N/A   Overcast